This demonstration page uses our WeatherBlox Daily Observations layout. Learn more.

Left ArrowRight Arrow

41.86663, -103.66717

Hourly Observations for January 2, 2021

Temp ( °F °C ) Dew Point ( °F °C ) Humidity (%) Winds ( mph kmh ) Pressure ( in mb ) Visibility ( mi km ) Precip ( " mm )
12:53 am 00:53 Clear 16 -8.9 11 -11.7 80 80 Calm 30.10 1019 10 16 0.00 0.00
1:53 am 01:53 Clear 14 -10 10 -12.2 84 84 E 5 7 30.10 1019 10 16 0.00 0.00
2:53 am 02:53 Clear 16 -8.9 11 -11.7 80 80 E 3 6 30.07 1018 10 16 0.00 0.00
3:53 am 03:53 Clear 15 -9.4 10 -12.2 80 80 E 5 7 30.05 1018 10 16 0.00 0.00
4:53 am 04:53 Clear 15 -9.4 9 -12.8 77 77 E 3 6 30.06 1018 10 16 0.00 0.00
5:53 am 05:53 Clear 14 -10 9 -12.8 80 80 ESE 7 11 30.07 1018 10 16 0.00 0.00
6:53 am 06:53 Clear 15 -9.4 10 -12.2 80 80 E 8 13 30.06 1018 10 16 0.00 0.00
7:53 am 07:53 Sunny 17 -8.3 11 -11.7 77 77 E 7 11 30.06 1018 10 16 0.00 0.00
8:53 am 08:53 Sunny 23 -5 17 -8.3 78 78 E 7 11 30.04 1017 10 16 0.00 0.00
9:53 am 09:53 Sunny 27 -2.8 20 -6.7 75 75 E 7 11 30.00 1016 10 16 0.00 0.00
10:53 am 10:53 Sunny 31 -0.6 22 -5.6 69 69 E 9 15 29.96 1015 10 16 0.00 0.00
11:53 am 11:53 Sunny 37 2.8 25 -3.9 62 62 E 8 13 29.91 1013 10 16 0.00 0.00
12:53 pm 12:53 Sunny 41 5 26 -3.3 55 55 E 6 9 29.88 1012 10 16 0.00 0.00
1:53 pm 13:53 Sunny 46 7.8 21 -6.1 37 37 WNW 8 13 29.87 1011 10 16 0.00 0.00
2:53 pm 14:53 Sunny 46 7.8 23 -5 40 40 WNW 9 15 29.87 1012 10 16 0.00 0.00
3:53 pm 15:53 Sunny 43 6.1 23 -5 45 45 WNW 16 26 29.91 1013 10 16 0.00 0.00
4:53 pm 16:53 Clear 38 3.3 23 -5 55 55 WNW 14 22 29.95 1014 10 16 0.00 0.00
5:53 pm 17:53 Cloudy 38 3.3 24 -4.4 57 57 WNW 10 17 29.98 1015 10 16 0.00 0.00
6:53 pm 18:53 Partly Cloudy 32 0 24 -4.4 73 73 NW 8 13 30.00 1016 10 16 0.00 0.00
7:53 pm 19:53 Cloudy 35 1.7 25 -3.9 67 67 WNW 8 13 30.00 1016 10 16 0.00 0.00
8:53 pm 20:53 Cloudy 35 1.7 25 -3.9 67 67 W 6 9 29.97 1015 10 16 0.00 0.00
9:53 pm 21:53 Cloudy 34 1.1 25 -3.9 70 70 WNW 5 7 29.96 1015 10 16 0.00 0.00
10:53 pm 22:53 Partly Cloudy 36 2.2 24 -4.4 62 62 W 7 11 29.93 1014 10 16 0.00 0.00
11:53 pm 23:53 Clear 36 2.2 22 -5.6 57 57 WNW 12 19 29.90 1013 10 16 0.00 0.00

Powered by AerisWeather